Aérodrome :
LOGIN :

S'inscrire | Disclaimer

   EN    FR    IT 

 










Légende :    VFR   VFR Marginal   IFR   IFR Intensif   IFR Très Intensif
Visi : 
Plafond : 
>= 8 km
>= 3000ft
5 à 8 km
1000 à 3000 ft
1500m à 5 km
500 à 1000 ft
800 à 1500m
200 à 500 ft
< 800m
< 200 ft
Symboles :   Orages  Brouillard  Fortes neiges  Fortes précipitations  Vent > 20 kt
SIGMETs :   Divers  Orages  Givrage  Turbulence  Onde Orograph.  Cendres Volcan.






- Altitude de l'aérodrome : 989 ft
- Code IATA : TRN


LIMF - Torino Caselle

DERNIER METAR :
  • 081450Z VRB03KT CAVOK 12/02 Q1014

METARs EXPIRÉS :
  • 081420Z 08005KT 010V100 CAVOK 12/03 Q1014
  • 081350Z VRB02KT CAVOK 13/03 Q1014
  • 081320Z 09004KT 030V130 CAVOK 12/03 Q1015
  • 081250Z 02003KT 310V110 CAVOK 12/03 Q1015

TAF TAF LIMF
Valide du 08 à 12h jusqu'au 09 à 12h UTC


081100Z 0812/0912 VRB04KT CAVOK



MET'MAP, la Météo Aéronautique d'un coup d'oeil ! - Copyright ORBIFLY Décembre 2007 - Disclaimer

ORBIFLY MET'MAP TEAM :

Programmation & Développement : Alexandra Zaïnal
Sur une idée originale de : Baudouin d'Aumeries
Assistance à la programmation : Marc-Olivier Méhu
Soutien technique & logistique : Manuel Goepfert

Contact : metmap@orbifly.com




SOURCES & CREDITS :

   NOAA